This is the latest recevied weather packets stored in our database for station/object WP4PW. If no packets are shown the sender has not sent any weather packets the latest 10 day(s).
| Time | Temp. | Humidity | Pressure | Rain* | Wind** | Luminosity | Snow |
|---|---|---|---|---|---|---|---|
| 1778189761 | 28.33° C | 82% | 1019.5 hPa | 0 mm | - | 66 W/m² | - |
| 1778189458 | 28.33° C | 82% | 1019.3 hPa | 0 mm | - | 89 W/m² | - |
| 1778189154 | 28.89° C | 81% | 1019.3 hPa | 0 mm | - | 105 W/m² | - |
| 1778188851 | 28.33° C | 83% | 1019.2 hPa | 0 mm | - | 95 W/m² | - |
| 1778188548 | 28.33° C | 83% | 1019.4 hPa | 0 mm | - | 80 W/m² | - |
| 1778188244 | 28.33° C | 83% | 1019.4 hPa | 0 mm | - | 93 W/m² | - |
| 1778187941 | 28.89° C | 82% | 1019.4 hPa | 0 mm | - | 80 W/m² | - |
| 1778187638 | 28.33° C | 82% | 1019.3 hPa | 0 mm | - | 108 W/m² | - |
| 1778187335 | 28.33° C | 82% | 1019 hPa | 0 mm | - | 87 W/m² | - |
| 1778187031 | 28.33° C | 83% | 1019.3 hPa | 0 mm | - | 96 W/m² | - |
| 1778186727 | 28.33° C | 82% | 1019.3 hPa | 0 mm | - | 85 W/m² | - |
| 1778186425 | 28.33° C | 82% | 1019.1 hPa | 0 mm | - | 213 W/m² | - |
| 1778186123 | 28.33° C | 83% | 1019.3 hPa | 0 mm | - | 110 W/m² | - |
| 1778185820 | 28.33° C | 83% | 1019.3 hPa | 0 mm | - | 76 W/m² | - |
| 1778185515 | 28.33° C | 83% | 1019.3 hPa | 0 mm | - | 76 W/m² | - |
| 1778185212 | 28.89° C | 83% | 1019.4 hPa | 0 mm | - | 57 W/m² | - |
| 1778184908 | 28.89° C | 83% | 1019.5 hPa | 0 mm | - | 77 W/m² | - |
| 1778184604 | 29.44° C | 82% | 1019.6 hPa | 0 mm | - | 164 W/m² | - |
| 1778184300 | 29.44° C | 80% | 1019.5 hPa | 0 mm | - | 193 W/m² | - |
| 1778183995 | 29.44° C | 79% | 1019.6 hPa | 0 mm | - | 583 W/m² | - |
| 1778183693 | 28.89° C | 79% | 1019.6 hPa | 0 mm | - | 463 W/m² | - |
| 1778183390 | 28.89° C | 81% | 1019.7 hPa | 0 mm | - | 225 W/m² | - |
| 1778183087 | 28.89° C | 80% | 1019.7 hPa | 0 mm | - | 126 W/m² | - |
| 1778182783 | 28.89° C | 81% | 1019.9 hPa | 0 mm | - | 119 W/m² | - |
| 1778182480 | 29.44° C | 80% | 1019.8 hPa | 0 mm | - | 583 W/m² | - |
* Rain latest hour (hover to see other rain measurements)
** Current wind speed in m/s (hover to see current wind gust speed)